星链-5604 (STARLINK-5604 )

导读 | 星芒AI

STARLINK-5604 是 SpaceX 星链计划中的一颗低轨道通信卫星,属于第 14 批组网发射的星链卫星之一。该卫星旨在为全球用户提供高速互联网服务,尤其关注网络覆盖不足的地区。它运行在约 550 公里的高度,采用先进的推进和通信技术,具备自动避障功能。作为星链星座的一部分,STARLINK-5604 有助于提升全球互联网接入的稳定性和速度,推动 SpaceX 在全球宽带市场的布局。

基本信息
目录编号:
55420
目录名称:
STARLINK-5604
国际标识:
2023-014AF
轨道中心:
EARTH
卫星名称:
星链-5604
卫星全名:
星链-5604 (STARLINK-5604 )
卫星状态:
在轨 (已飞行1055 天)
发射日期:
2023-01-31 UTC
国别 :
美国 (US)
星等 :
--
轨道信息
数据来源 国际轨道数据
星历时间: 2025-12-21T08:22:33+0800
14小时前
查看轨道信息
半长轴: 6950.19km
偏心率: 0.0002794
轨道倾角: 69.998°
近地点辐角 271.798°
升交点赤经 242.841°
平近点角 88.286°
近地点: 570.111km
远地点: 573.995km
周期: 96.107分钟
每日圈数: 14.983311
详细信息
固有亮度:
5
最大亮度:
2.5
卫星平台:
Starlink v1.5
覆盖范围:
全球
运营商:
太空探索技术公司
运营商所在国:
美国
制造商(研发单位):
太空探索技术公司
制造商所在国:
美国
使用方式:
暂无
卫星简介
星链(Starlink)计划是由太空探索技术公司(SpaceX)提出的一个巨型低轨卫星互联网星座项目,计划在2019年至2024年间在太空搭建由约1.2万颗卫星组成的“星链”网络,其中1584颗将部署在地球上空550千米处的近地轨道,并从2020年开始工作。该卫星仍在工作。
2D轨道图
3D轨道图
轨道高度分析图
轨道倾角分析图
轨道综合分析图
查看轨道综合分析图